Miscellaneous Local Product
Issued by NWS Hastings, NE

Home | Current Version | Previous Version | Text Only | Print | Product List | Glossary Off
Versions: 1 2 3 4 5 6 7 8 9 10 11 12 13 14 15 16 17 18 19 20 21 22 23 24 25 26 27 28 29 30 31 32 33 34 35 36 37 38 39 40 41 42 43 44 45 46 47 48 49 50

000
AXUS43 KGID 260602
MISGRI

GID CWA HOURLY WEATHER ROUNDUP
NATIONAL WEATHER SERVICE HASTINGS NE
100 AM CDT TUE MAY 26 2015

NOTE: "FAIR" INDICATES FEW OR NO CLOUDS BELOW 12,000 FEET WITH NO
SIGNIFICANT WEATHER AND/OR OBSTRUCTIONS TO VISIBILITY.

...SOUTH CENTRAL NEBRASKA...

CITY           SKY/WX    TMP DP  RH WIND       PRES   REMARKS
GRAND ISLAND   CLOUDY    59  57  93 NE3       29.78S
HASTINGS       CLOUDY    61  54  77 W8        29.77F
KEARNEY        CLOUDY    61  54  77 NW9       29.80S
ORD            CLOUDY    59  55  87 N7        29.81R
YORK           CLOUDY    61  55  82 S6        29.78F
AURORA         CLOUDY    60  58  93 NE10      29.78S
LEXINGTON      MOCLDY    59  55  88 N10       29.84R
HOLDREGE       CLOUDY    59  49  70 W9        29.81S
HEBRON         CLOUDY    60  55  81 SE3       29.78F

...NEBRASKA PANHANDLE...

CITY           SKY/WX    TMP DP  RH WIND       PRES   REMARKS
CHADRON        CLOUDY    54  53  97 N3        29.95S
ALLIANCE       MOCLDY    50  48  93 NW6       29.94S
SCOTTSBLUFF    MOCLDY    49  48  97 NW6       29.96S
SIDNEY         PTCLDY    47  45  93 NW7       29.97R

...WESTERN AND NORTH CENTRAL NEBRASKA...

CITY           SKY/WX    TMP DP  RH WIND       PRES   REMARKS
VALENTINE      CLOUDY    55  53  93 N7        29.90S
AINSWORTH      LGT RAIN  56  56  99 N7        29.88S
ONEILL         CLOUDY    59  58  97 N8        29.84S
BROKEN BOW     CLOUDY    58  55  90 N12       29.83S
IMPERIAL       MOCLDY    53  49  86 NW8       29.92R
NORTH PLATTE   CLEAR     50  48  93 W6        29.88F
MCCOOK         PTCLDY    55  51  86 NW12      29.87R

...EASTERN NEBRASKA...

CITY           SKY/WX    TMP DP  RH WIND       PRES   REMARKS
NORFOLK        CLOUDY    61  55  81 N6        29.79F
SO SIOUX CITY  CLOUDY    66  57  72 S5        29.79R
TEKAMAH        CLOUDY    63  61  93 S7        29.76F
COLUMBUS       CLOUDY   N/A N/A N/A MISG        N/A
ALBION         CLOUDY    57  56  94 NW7       29.79S
OMAHA EPPLEY   CLOUDY    63  59  87 SE8       29.78F
OFFUTT AFB     CLOUDY    61  59  95 E5        29.78F
MILLARD        CLOUDY    63  59  86 SE5       29.78F
LINCOLN        CLOUDY    63  57  81 S9        29.78F
NEBRASKA CITY  CLOUDY    59  59  99 CALM      29.80R
BEATRICE       CLOUDY    61  56  85 S5        29.80R
FALLS CITY     LGT RAIN  62  58  86 VRB3      29.77F

...NORTHERN KANSAS...

CITY           SKY/WX    TMP DP  RH WIND       PRES   REMARKS
GOODLAND       PTCLDY    50  48  93 W8        29.95R
HILL CITY      CLOUDY    59  51  75 W10       29.85S
NORTON         CLEAR     55  48  76 W9        29.83S
PHILLIPSBURG   CLEAR     63  54  72 W12       29.81F
SMITH CENTER   PTCLDY    57  55  94 S5        29.82R
HAYS           CLOUDY    61  52  72 N3        29.85R
RUSSELL        CLOUDY    60  58  92 S14       29.82S
CONCORDIA      CLOUDY    63  55  75 S9        29.79S
SALINA         CLOUDY    63  57  81 E7        29.82R
TOPEKA         LGT RAIN  62  61  96 E9        29.86S



USA.gov is the U.S. government's official web portal to all federal, state and local government web resources and services.